Location: Newark
(46.2358°N, 112.1211°W)
Time: 09:35:01
(UTC+00:00)

DELFI C3 - Pass Details

Date: 11 July 2020
Orbit: 533 x 552 km, 97.4° (Epoch: 12 August)

Event Time Altitude Azimuth Distance (km) Brightness Sun altitude
Rises 03:56:06 0° 191° (S) 2,713 ? -5.8°
Reaches altitude 10° 03:58:24 10° 202° (SSW) 1,826 ? -6.1°
Maximum altitude 04:01:55 30° 264° (W) 1,008 ? -6.6°
Drops below altitude 10° 04:05:27 10° 327° (NNW) 1,841 ? -7.0°
Sets 04:07:48 0° 338° (NNW) 2,740 ? -7.3°
